Weather History for Glasgow, United Kingdom

Change the Weather History Date:

Saturday, October 22, 2011

  Actual Average Record
Temperature  
Mean Temperature 52 °F -  
Max Temperature 55 °F 49 °F 60 °F (1996)
Min Temperature 50 °F 38 °F 24 °F (1997)
Degree Days  
Heating Degree Days 12    
Growing Degree Days 2 (Base 50)    
Moisture  
Dew Point 47 °F    
Average Humidity 81    
Maximum Humidity 94    
Minimum Humidity 72    
Precipitation  
Precipitation 0.00 in - - ()
Sea Level Pressure  
Sea Level Pressure 29.66 in    
Wind  
Wind Speed 11 mph ()    
Max Wind Speed 17 mph    
Max Gust Speed 30 mph    
Visibility 6.0 miles    
Events Rain    
Averages and records for this station are not official NWS values.
T = Trace of Precipitation, MM = Missing Value Source: Averaged Metar Reports

Daily Weather History Graph

Daily Weather History Graph

Search for Another Location

Airport:

Trip Planner

Search our weather history database for the weather conditions in past years. The results will help you decide how hot, cold, wet, or windy it might be!

Date:

Astronomy

Oct. 22, 2011 Rise Set
Actual Time 8:02 AM BST 6:01 PM BST
Civil Twilight 7:24 AM BST 6:39 PM BST
Nautical Twilight 6:41 AM BST 7:22 PM BST
Astronomical Twilight 5:58 AM BST 8:05 PM BST
Moon 1:49 AM BST (10/22) 3:56 PM BST (10/22)
Length of Visible Light 11h 15m
Length of Day
9h 58m
Waning Crescent, 26% of the Moon is Illuminated
Oct 22
Waning Crescent
Oct 26
New
Nov 2
First Quarter
Nov 10
Full
Nov 18
Last Quarter

Hourly Weather History & Observations

Time (BST) Temp. Dew Point Humidity Pressure Visibility Wind Dir Wind Speed Gust Speed Precip Events Conditions
12:20 AM 53.6 °F 48.2 °F 82% 29.86 in 6.2 mi South 13.8 mph - N/A   Mostly Cloudy
12:50 AM 53.6 °F 48.2 °F 82% 29.83 in 6.2 mi South 10.4 mph - N/A   Mostly Cloudy
1:20 AM 53.6 °F 48.2 °F 82% 29.83 in 6.2 mi South 9.2 mph - N/A   Mostly Cloudy
1:50 AM 55.4 °F 48.2 °F 77% 29.83 in 6.2 mi South 13.8 mph - N/A   Mostly Cloudy
2:20 AM 53.6 °F 48.2 °F 82% 29.80 in 6.2 mi South 11.5 mph - N/A   Mostly Cloudy
2:50 AM 53.6 °F 48.2 °F 82% 29.80 in 6.2 mi South 11.5 mph - N/A   Overcast
3:20 AM 53.6 °F 46.4 °F 77% 29.77 in 6.2 mi South 10.4 mph - N/A   Mostly Cloudy
3:50 AM 53.6 °F 48.2 °F 82% 29.77 in 6.2 mi South 13.8 mph - N/A   Mostly Cloudy
4:20 AM 53.6 °F 48.2 °F 82% 29.77 in 6.2 mi SSE 8.1 mph - N/A   Mostly Cloudy
4:50 AM 53.6 °F 48.2 °F 82% 29.77 in 6.2 mi South 13.8 mph - N/A   Mostly Cloudy
5:20 AM 53.6 °F 46.4 °F 77% 29.77 in 6.2 mi SSE 10.4 mph - N/A   Mostly Cloudy
5:50 AM 53.6 °F 46.4 °F 77% 29.74 in 6.2 mi SSE 11.5 mph - N/A   Mostly Cloudy
6:20 AM 53.6 °F 46.4 °F 77% 29.74 in 6.2 mi South 6.9 mph - N/A   Scattered Clouds
6:50 AM 53.6 °F 46.4 °F 77% 29.74 in 6.2 mi South 15.0 mph - N/A   Scattered Clouds
7:20 AM 53.6 °F 48.2 °F 82% 29.74 in - South 13.8 mph - N/A   Clear
7:50 AM 53.6 °F 48.2 °F 82% 29.71 in 6.2 mi South 12.7 mph 24.2 mph N/A   Partly Cloudy
8:20 AM 53.6 °F 48.2 °F 82% 29.71 in 6.2 mi South 11.5 mph - N/A   Partly Cloudy
8:50 AM 53.6 °F 48.2 °F 82% 29.71 in 6.2 mi South 12.7 mph - N/A   Mostly Cloudy
9:20 AM 53.6 °F 48.2 °F 82% 29.71 in 6.2 mi South 13.8 mph 29.9 mph N/A   Mostly Cloudy
9:50 AM 53.6 °F 48.2 °F 82% 29.68 in 6.2 mi South 16.1 mph - N/A   Mostly Cloudy
10:20 AM 55.4 °F 48.2 °F 77% 29.68 in 6.2 mi South 16.1 mph - N/A   Mostly Cloudy
10:50 AM 55.4 °F 46.4 °F 72% 29.68 in 6.2 mi South 13.8 mph 25.3 mph N/A   Overcast
11:20 AM 53.6 °F 46.4 °F 77% 29.68 in 6.2 mi South 17.3 mph - N/A Rain Light Rain
11:50 AM 53.6 °F 46.4 °F 77% 29.68 in 6.2 mi South 11.5 mph - N/A   Overcast
12:20 PM 53.6 °F 46.4 °F 77% 29.68 in 6.2 mi South 16.1 mph - N/A   Overcast
12:50 PM 53.6 °F 48.2 °F 82% 29.65 in 6.2 mi South 15.0 mph - N/A   Overcast
1:20 PM 53.6 °F 48.2 °F 82% 29.65 in 6.2 mi SSE 15.0 mph - N/A   Overcast
1:50 PM 53.6 °F 48.2 °F 82% 29.65 in 6.2 mi SSE 13.8 mph - N/A   Overcast
2:20 PM 53.6 °F 46.4 °F 77% 29.62 in 6.2 mi South 15.0 mph - N/A   Overcast
2:50 PM 53.6 °F 46.4 °F 77% 29.62 in 6.2 mi SSE 15.0 mph - N/A   Overcast
3:20 PM 53.6 °F 46.4 °F 77% 29.62 in 6.2 mi SSE 13.8 mph - N/A   Overcast
3:50 PM 53.6 °F 46.4 °F 77% 29.59 in 6.2 mi SSE 11.5 mph - N/A   Overcast
4:20 PM 53.6 °F 46.4 °F 77% 29.59 in 6.2 mi SSE 10.4 mph - N/A   Overcast
4:50 PM 53.6 °F 46.4 °F 77% 29.59 in 6.2 mi SSE 11.5 mph - N/A   Overcast
5:20 PM 51.8 °F 46.4 °F 82% 29.59 in 5.6 mi SSE 10.4 mph - N/A Rain Light Rain
5:50 PM 51.8 °F 46.4 °F 82% 29.56 in 6.2 mi SSE 12.7 mph - N/A Rain Light Rain
6:20 PM 51.8 °F 46.4 °F 82% 29.56 in 5.6 mi SSE 15.0 mph - N/A Rain Light Rain
6:50 PM 51.8 °F 46.4 °F 82% 29.56 in 6.2 mi SSE 11.5 mph - N/A Rain Light Rain
7:20 PM 50.0 °F 46.4 °F 87% 29.56 in 6.2 mi SSE 9.2 mph - N/A Rain Light Rain
7:50 PM 50.0 °F 46.4 °F 87% 29.56 in 5.6 mi SSE 10.4 mph - N/A Rain Light Rain
8:20 PM 51.8 °F 46.4 °F 82% 29.53 in 5.0 mi SSE 11.5 mph - N/A Rain Light Rain
8:50 PM 50.0 °F 46.4 °F 87% 29.53 in 6.2 mi SSE 12.7 mph - N/A Rain Light Rain
9:20 PM 51.8 °F 48.2 °F 88% 29.53 in 6.2 mi SSE 15.0 mph - N/A Rain Light Rain
9:50 PM 51.8 °F 46.4 °F 82% 29.50 in 5.6 mi SSE 17.3 mph - N/A Rain Light Rain
10:20 PM 51.8 °F 46.4 °F 82% 29.50 in 6.2 mi SSE 12.7 mph - N/A Rain Light Rain
10:50 PM 51.8 °F 46.4 °F 82% 29.50 in 6.2 mi SSE 13.8 mph - N/A Rain Light Rain
11:20 PM 51.8 °F 48.2 °F 88% 29.50 in 3.7 mi SE 11.5 mph - N/A Rain Rain
11:50 PM 50.0 °F 48.2 °F 94% 29.47 in 4.3 mi SE 10.4 mph - N/A Rain Light Rain